Change the Weather History Date:

Friday, August 2, 2013

  Actual Average (KLTS) Record (KLTS)
Temperature  
Mean Temperature 92 °F -  
Max Temperature 105 °F 95 °F 112 °F (2012)
Min Temperature 79 °F 71 °F 63 °F (2014)
Cooling Degree Days 27    
Growing Degree Days 42 (Base 50)    
Moisture  
Dew Point 62 °F    
Average Humidity 42    
Maximum Humidity 73    
Minimum Humidity 19    
Precipitation  
Precipitation 0.00 in - - ()
Sea Level Pressure  
Sea Level Pressure 29.89 in    
Wind  
Wind Speed 9 mph (South)    
Max Wind Speed 20 mph    
Max Gust Speed 25 mph    
Visibility 10 miles    
Events      
Averages and records for this station are not official NWS values.
T = Trace of Precipitation, MM = Missing Value Source: NWS Daily Summary

Daily Weather History Graph

Daily Weather History Graph

Search for Another Location

Airport or City:

Trip Planner

Search our weather history database for the weather conditions in past years. The results will help you decide how hot, cold, wet, or windy it might be!

Date:

Astronomy

Aug. 02, 2013 Rise Set
Actual Time 6:49 AM CDT 8:37 PM CDT
Civil Twilight 6:21 AM CDT 9:04 PM CDT
Nautical Twilight 5:48 AM CDT 9:37 PM CDT
Astronomical Twilight 5:13 AM CDT 10:12 PM CDT
Moon 3:13 AM CDT 5:34 PM CDT
Length of Visible Light 14h 42m
Length of Day
13h 48m
Waning Crescent, 15% of the Moon is Illuminated
Aug 2
Waning Crescent
Aug 6
New
Aug 14
First Quarter
Aug 20
Full
Aug 28
Last Quarter

Hourly Weather History & Observations

Time (CDT) Temp. Heat Index Dew Point Humidity Pressure Visibility Wind Dir Wind Speed Gust Speed Precip Events Conditions
12:15 AM 81.9 °F 84.4 °F 67.3 °F 61% 29.96 in 10.0 mi East 3.5 mph - N/A   Clear
12:35 AM 81.0 °F 83.6 °F 67.6 °F 64% 29.97 in 10.0 mi NE 5.8 mph - N/A   Clear
12:55 AM 80.4 °F 83.1 °F 68.2 °F 66% 29.97 in 10.0 mi NE 4.6 mph - N/A   Clear
1:15 AM 80.1 °F 82.8 °F 68.5 °F 68% 29.96 in 10.0 mi NE 4.6 mph - N/A   Clear
1:35 AM 80.4 °F 83.4 °F 68.9 °F 68% 29.95 in 10.0 mi ENE 4.6 mph - N/A   Clear
1:55 AM 80.6 °F 83.6 °F 69.1 °F 68% 29.94 in 10.0 mi East 4.6 mph - N/A   Clear
2:15 AM 80.2 °F 83.2 °F 69.3 °F 69% 29.93 in 10.0 mi East 4.6 mph - N/A   Clear
2:35 AM 79.7 °F - 69.6 °F 71% 29.93 in 10.0 mi East 4.6 mph - N/A   Clear
2:55 AM 79.9 °F - 69.8 °F 71% 29.92 in 10.0 mi East 4.6 mph - N/A   Clear
3:15 AM 79.7 °F - 69.8 °F 72% 29.91 in 10.0 mi ESE 4.6 mph - N/A   Clear
3:35 AM 79.9 °F - 70.0 °F 72% 29.91 in 10.0 mi ESE 4.6 mph - N/A   Clear
3:55 AM 79.7 °F - 70.2 °F 73% 29.90 in 10.0 mi SE 4.6 mph - N/A   Clear
4:15 AM 79.7 °F - 70.2 °F 73% 29.90 in 10.0 mi SE 4.6 mph - N/A   Clear
4:35 AM 80.4 °F 83.9 °F 70.5 °F 72% 29.90 in 10.0 mi SE 4.6 mph - N/A   Clear
4:55 AM 81.3 °F 85.2 °F 70.5 °F 70% 29.90 in 10.0 mi SSE 8.1 mph - N/A   Clear
5:15 AM 81.7 °F 85.4 °F 70.2 °F 68% 29.90 in 10.0 mi SSE 6.9 mph - N/A   Clear
5:35 AM 81.5 °F 85.1 °F 70.0 °F 68% 29.90 in 10.0 mi South 8.1 mph - N/A   Clear
5:55 AM 81.5 °F 84.9 °F 69.6 °F 67% 29.90 in 10.0 mi South 6.9 mph - N/A   Clear
6:15 AM 81.0 °F 84.1 °F 69.3 °F 67% 29.90 in 10.0 mi South 5.8 mph - N/A   Clear
6:35 AM 80.2 °F 83.2 °F 69.1 °F 69% 29.90 in 10.0 mi South 8.1 mph - N/A   Clear
6:55 AM 80.4 °F 83.2 °F 68.5 °F 67% 29.90 in 10.0 mi South 8.1 mph - N/A   Clear
7:35 AM 80.2 °F 82.8 °F 67.8 °F 66% 29.90 in 10.0 mi South 8.1 mph - N/A   Clear
7:55 AM 81.7 °F 84.0 °F 66.7 °F 60% 29.91 in 10.0 mi South 8.1 mph - N/A   Clear
8:15 AM 82.9 °F 85.0 °F 66.0 °F 56% 29.91 in 10.0 mi SSW 10.4 mph - N/A   Clear
8:35 AM 84.2 °F 85.8 °F 64.9 °F 52% 29.91 in 10.0 mi SSW 11.5 mph - N/A   Clear
8:55 AM 86.0 °F 87.3 °F 64.4 °F 48% 29.91 in 10.0 mi SSW 12.7 mph - N/A   Scattered Clouds
9:15 AM 87.8 °F 88.8 °F 63.5 °F 44% 29.91 in 10.0 mi SSW 15.0 mph - N/A   Clear
9:35 AM 89.4 °F 89.8 °F 62.4 °F 40% 29.92 in 10.0 mi SW 16.1 mph 21.9 mph N/A   Clear
9:55 AM 91.0 °F 91.2 °F 61.7 °F 37% 29.92 in 10.0 mi SW 16.1 mph 19.6 mph N/A   Clear
10:15 AM 92.7 °F 92.5 °F 60.6 °F 34% 29.91 in 10.0 mi SW 18.4 mph 21.9 mph N/A   Clear
10:35 AM 94.1 °F 93.9 °F 59.7 °F 32% 29.92 in 10.0 mi WSW 18.4 mph - N/A   Clear
10:55 AM 95.5 °F 95.2 °F 59.4 °F 30% 29.92 in 10.0 mi SW 15.0 mph 20.7 mph N/A   Clear
11:15 AM 97.5 °F 97.3 °F 58.8 °F 28% 29.92 in 10.0 mi SW 19.6 mph - N/A   Clear
11:35 AM 99.0 °F 97.7 °F 56.7 °F 24% 29.93 in 10.0 mi SW 16.1 mph - N/A   Clear
11:55 AM 99.7 °F 98.7 °F 56.8 °F 24% 29.92 in 10.0 mi SW 17.3 mph - N/A   Clear
12:15 PM 100.8 °F 99.8 °F 56.7 °F 23% 29.92 in 10.0 mi WSW 16.1 mph 24.2 mph N/A   Clear
1:15 PM 102.2 °F 101.4 °F 57.0 °F 22% 29.91 in 10.0 mi SSW 15.0 mph 21.9 mph N/A   Clear
1:35 PM 103.1 °F 102.7 °F 57.4 °F 22% 29.90 in 10.0 mi SSW 15.0 mph 21.9 mph N/A   Clear
1:55 PM 103.6 °F 102.9 °F 56.8 °F 21% 29.89 in 10.0 mi SSW 15.0 mph 25.3 mph N/A   Clear
2:36 PM 105.8 °F 104.9 °F 55.4 °F 19% 29.88 in 10.0 mi SW 15.0 mph 19.6 mph N/A   Clear
2:57 PM 105.8 °F 105.5 °F 57.2 °F 20% 29.88 in 10.0 mi SW 11.5 mph 20.7 mph N/A   Clear
3:16 PM 105.8 °F 105.5 °F 57.2 °F 20% 29.87 in 10.0 mi SW 11.5 mph - N/A   Clear
3:36 PM 105.8 °F 105.5 °F 57.2 °F 20% 29.86 in 10.0 mi South 16.1 mph - N/A   Clear
3:56 PM 105.8 °F 104.9 °F 55.4 °F 19% 29.86 in 10.0 mi SSW 16.1 mph 23.0 mph N/A   Clear
4:16 PM 105.8 °F 105.5 °F 57.2 °F 20% 29.85 in 10.0 mi South 12.7 mph 20.7 mph N/A   Clear
4:36 PM 105.8 °F 104.9 °F 55.4 °F 19% 29.85 in 10.0 mi SW 10.4 mph - N/A   Clear
4:56 PM 105.8 °F 105.5 °F 57.2 °F 20% 29.84 in 10.0 mi SSW 12.7 mph 17.3 mph N/A   Clear
5:15 PM 105.6 °F 105.2 °F 56.5 °F 20% 29.84 in 10.0 mi South 12.7 mph 21.9 mph N/A   Clear
5:35 PM 104.7 °F 104.5 °F 56.8 °F 21% 29.84 in 10.0 mi South 15.0 mph 19.6 mph N/A   Clear
5:55 PM 104.9 °F 104.2 °F 56.7 °F 20% 29.84 in 10.0 mi SSW 16.1 mph 23.0 mph N/A   Clear
6:15 PM 104.9 °F 104.2 °F 56.3 °F 20% 29.83 in 10.0 mi South 12.7 mph 16.1 mph N/A   Clear
6:55 PM 103.6 °F 103.5 °F 57.9 °F 22% 29.82 in 10.0 mi South 13.8 mph - N/A   Clear
7:15 PM 102.6 °F 102.4 °F 58.3 °F 23% 29.83 in 10.0 mi South 15.0 mph 21.9 mph N/A   Clear
7:35 PM 101.3 °F 101.1 °F 58.3 °F 24% 29.83 in 10.0 mi South 13.8 mph - N/A   Clear
7:55 PM 100.4 °F 100.2 °F 58.6 °F 25% 29.83 in 10.0 mi South 12.7 mph - N/A   Clear
8:15 PM 99.1 °F 98.8 °F 59.0 °F 26% 29.84 in 10.0 mi South 12.7 mph - N/A   Clear
8:35 PM 97.7 °F 97.6 °F 59.2 °F 28% 29.84 in 10.0 mi South 11.5 mph - N/A   Clear
8:55 PM 96.3 °F 95.9 °F 59.2 °F 29% 29.85 in 10.0 mi SSE 12.7 mph - N/A   Unknown
9:15 PM 95.4 °F 94.9 °F 59.2 °F 30% 29.85 in 10.0 mi South 13.8 mph - N/A   Clear
9:35 PM 94.6 °F 93.9 °F 59.0 °F 30% 29.86 in 10.0 mi South 15.0 mph - N/A   Clear
9:55 PM 94.3 °F 93.4 °F 58.8 °F 30% 29.86 in 10.0 mi South 13.8 mph - N/A   Clear
10:15 PM 93.6 °F 92.7 °F 58.5 °F 31% 29.87 in 10.0 mi South 12.7 mph - N/A   Clear
10:35 PM 92.7 °F 91.5 °F 58.3 °F 31% 29.87 in 10.0 mi South 11.5 mph - N/A   Clear
10:55 PM 91.8 °F 90.6 °F 58.3 °F 32% 29.88 in 10.0 mi South 12.7 mph - N/A   Clear
11:15 PM 91.4 °F 90.4 °F 58.3 °F 33% 29.88 in 10.0 mi South 15.0 mph - N/A   Clear
11:35 PM 91.4 °F 90.4 °F 58.5 °F 33% 29.88 in 10.0 mi South 16.1 mph 21.9 mph N/A   Clear
11:55 PM 91.4 °F 90.4 °F 58.8 °F 33% 29.88 in 10.0 mi South 15.0 mph - N/A   Clear